This is the latest recevied weather packets stored in our database for station/object SP1BMW-13. If no packets are shown the sender has not sent any weather packets the latest 10 day(s).
| Time | Temp. | Humidity | Pressure | Rain* | Wind** | Luminosity | Snow |
|---|---|---|---|---|---|---|---|
| 1788109241 | 23.89° C | 54% | 1009 hPa | 0 mm | 1.34 m/s, 293° | 33 W/m² | - |
| 1788109179 | 23.89° C | 53% | 1009.1 hPa | 0 mm | 1.79 m/s, 288° | 34 W/m² | - |
| 1788109118 | 23.89° C | 53% | 1009 hPa | 0 mm | 0.45 m/s, 211° | 35 W/m² | - |
| 1788109058 | 23.89° C | 53% | 1008.9 hPa | 0 mm | 1.79 m/s, 289° | 36 W/m² | - |
| 1788108999 | 23.89° C | 53% | 1009.1 hPa | 0 mm | 0.89 m/s, 258° | 38 W/m² | - |
| 1788108938 | 23.89° C | 53% | 1009 hPa | 0 mm | 0.89 m/s, 257° | 39 W/m² | - |
| 1788108883 | 23.89° C | 52% | 1009 hPa | 0 mm | 1.34 m/s, 263° | 41 W/m² | - |
| 1788108818 | 23.89° C | 53% | 1008.9 hPa | 0 mm | 0.45 m/s, 277° | 46 W/m² | - |
| 1788108758 | 23.89° C | 52% | 1009 hPa | 0 mm | 1.34 m/s, 269° | 60 W/m² | - |
| 1788108698 | 23.89° C | 53% | 1009 hPa | 0 mm | 0.45 m/s, 319° | 65 W/m² | - |
| 1788108638 | 23.89° C | 53% | 1009.1 hPa | 0 mm | 0.45 m/s, 170° | 66 W/m² | - |
| 1788108581 | 23.89° C | 53% | 1009 hPa | 0 mm | 1.79 m/s, 222° | 56 W/m² | - |
| 1788108518 | 23.89° C | 52% | 1009 hPa | 0 mm | 1.34 m/s, 275° | 41 W/m² | - |
| 1788108458 | 23.89° C | 53% | 1009 hPa | 0 mm | 0.89 m/s, 0° | 42 W/m² | - |
| 1788108398 | 23.89° C | 53% | 1008.9 hPa | 0 mm | 0.89 m/s, 237° | 42 W/m² | - |
| 1788108338 | 23.89° C | 53% | 1009 hPa | 0 mm | 2.24 m/s, 255° | 43 W/m² | - |
| 1788108278 | 23.89° C | 53% | 1009 hPa | 0 mm | 0.89 m/s, 232° | 44 W/m² | - |
| 1788108218 | 23.89° C | 53% | 1009 hPa | 0 mm | 1.34 m/s, 240° | 45 W/m² | - |
| 1788108158 | 24.44° C | 53% | 1008.9 hPa | 0 mm | 0.89 m/s, 260° | 47 W/m² | - |
| 1788108100 | 24.44° C | 53% | 1008.9 hPa | 0 mm | 0.89 m/s, 293° | 57 W/m² | - |
| 1788108038 | 24.44° C | 52% | 1009.1 hPa | 0 mm | 0.89 m/s, 197° | 53 W/m² | - |
| 1788107978 | 24.44° C | 53% | 1009 hPa | 0 mm | 0.45 m/s, 327° | 57 W/m² | - |
| 1788107918 | 24.44° C | 53% | 1008.8 hPa | 0 mm | 0.89 m/s, 338° | 52 W/m² | - |
| 1788107860 | 24.44° C | 52% | 1008.7 hPa | 0 mm | 1.34 m/s, 256° | 48 W/m² | - |
| 1788107798 | 24.44° C | 52% | 1008.9 hPa | 0 mm | 0.45 m/s, 22° | 48 W/m² | - |
* Rain latest hour (hover to see other rain measurements)
** Current wind speed in m/s (hover to see current wind gust speed)